Flag for U.S.A. Weather past 2 weeks in Terre Haute, Indiana, U.S.A.

Now
57 °F

Clear.


Feels Like: 56 °F
Forecast: 53 / 79 °F
Wind: 6 mph from Southeast

Location: Terre Haute International Airport - Hulman Field

Current Time: Jun 3, 2015 at 1:54:52 AM

Latest Report: Jun 3, 2015 at 12:53 AM


Visibility: 10 mi

Pressure: 30.09 "Hg

Humidity: 83%

Dew point: 52 °F

Location of Terre HauteLocation

Historic Weather in Terre Haute — Graph

°F

Terre Haute temperature yesterday

Maximum temperature yesterday: 73 °F (at 3:53 PM)
Minimum temperature yesterday: 51 °F (at 4:53 AM)
Average temperature yesterday: 62 °F

Past Weeks' High & Low Weather Summary

 TemperatureHumidityPressure
High86 °F (May 28, 4:53 PM)100% (May 31, 2:53 AM)30.37 "Hg (May 31, 2:53 AM)
Low46 °F (May 20, 3:53 AM)36% (May 22, 4:53 PM)29.87 "Hg (May 30, 5:53 PM)
Average65 °F72%30.09 "Hg
* Reported May 19 12:53 AM — Jun 3 12:53 AM, Terre Haute, Weather by CustomWeather, © 2015

Note: Actual official high and low records may vary slightly from our data, if they occured in-between our weather recording intervals... More about our weather records

Advertising

Terre Haute weather history for previous 24 hours

 ConditionsComfort  
Time TempWeatherWind HumidityBarometerVisibility
12:53 AM
Wed, Jun 3
57 °FClear.6 mph83%30.09 "Hg10 mi
11:53 PM
Tue, Jun 2
59 °FClear.8 mph81%30.09 "Hg10 mi
10:53 PM61 °FClear.12 mph81%30.08 "Hg10 mi
9:53 PM64 °FSunny.8 mph75%30.06 "Hg10 mi
8:53 PM67 °FSunny.6 mph63%30.06 "Hg10 mi
7:53 PM71 °FSunny.6 mph55%30.05 "Hg10 mi
6:53 PM72 °FSunny.3 mph53%30.04 "Hg10 mi
5:53 PM73 °FPassing clouds.9 mph51%30.04 "Hg10 mi
4:53 PM73 °FSunny.7 mph51%30.05 "Hg10 mi
3:53 PM73 °FSunny.5 mph50%30.07 "Hg10 mi
2:53 PM71 °FSunny.5 mph55%30.08 "Hg10 mi
1:53 PM70 °FPassing clouds.8 mph61%30.11 "Hg10 mi
12:53 PM67 °FPassing clouds.6 mph63%30.13 "Hg10 mi
11:53 AM64 °FSunny.8 mph68%30.14 "Hg10 mi
10:53 AM60 °FScattered clouds.5 mph72%30.16 "Hg10 mi
9:53 AM57 °FPartly sunny.8 mph78%30.17 "Hg10 mi
8:53 AM54 °FOvercast.6 mph83%30.17 "Hg10 mi
7:53 AM54 °FOvercast.9 mph86%30.16 "Hg10 mi
6:53 AM52 °FFog.7 mph93%30.14 "Hg6 mi
5:53 AM52 °FFog.6 mph93%30.14 "Hg6 mi
4:53 AM51 °FPassing clouds.3 mph92%30.13 "Hg7 mi
3:53 AM53 °FClear.6 mph86%30.12 "Hg9 mi
2:53 AM56 °FOvercast.8 mph84%30.13 "Hg10 mi
1:53 AM56 °FOvercast.8 mph84%30.14 "Hg10 mi
Weather by CustomWeather, © 2015

See weather overviewHow to use our weather pages